#timestamp,LO_Frequency,Hit,StdDev 
1703167215.9,286001602.3,N
1703167235.7,286001601.9,N
1703167255.5,286001602.3,N
1703167275.4,286001602.3,N
1703167295.2,286001600.0,Y
1703167315.0,286047000.7,P
1703167315.9,286047000.7,N
1703167335.8,286047000.0,N
1703167355.6,286047001.0,N
1703167375.5,286047000.6,N
1703167395.3,286047000.6,N
1703167415.1,286046999.9,N
1703167435.9,286047002.2,N
1703167455.7,286047000.3,N
1703167475.5,286047000.2,N
1703167495.4,286047000.9,N
1703167515.2,286047000.9,N
1703167535.0,286047000.0,N
1703167536.0,286047000.0,N
1703167555.8,286046999.0,N
1703167575.6,286046998.4,N
1703167595.5,286047001.2,N
1703167615.3,286047001.2,N
1703167635.1,286047001.2,N
1703167655.9,286046998.2,N
1703167675.7,286047000.9,N
1703167695.5,286046999.8,N
1703167715.4,286047001.0,N
1703167735.2,286047000.3,N
1703167755.1,286047000.2,N
1703167756.0,286047000.2,N
1703167775.8,286047000.7,N
1703167795.6,286046999.7,N
1703167815.5,286047000.0,N
1703167835.3,286047000.6,N
1703167855.1,286047000.6,N
1703167875.9,286047000.2,N
1703167895.7,286046999.7,N
1703167915.6,286047001.9,N
1703167935.4,286047001.6,N
1703167955.2,286047001.6,N
1703167975.1,286047001.8,N
1703167976.0,286047001.8,N
1703167995.8,286047001.4,N
1703168015.7,286047001.7,N
1703168035.5,286047002.8,N
1703168055.3,286047001.7,N
1703168075.2,286047001.9,N
1703168095.0,286046999.8,N
1703168095.9,286046999.8,N
1703168115.8,286047000.5,N
1703168135.6,286047002.8,N
1703168155.4,286047000.4,N
1703168175.3,286047000.7,N
1703168195.1,286047000.5,N
1703168215.8,286047000.4,N
1703168235.7,286047000.4,N
1703168255.5,286047000.0,N
1703168275.4,286047000.9,N
1703168295.2,286046999.9,N
1703168315.0,286047002.4,N
1703168315.9,286047002.4,N
1703168335.8,286047002.8,N
1703168355.6,286047002.1,N
1703168375.4,286047002.0,N
1703168395.3,286047002.6,N
1703168415.1,286047002.4,N
1703168435.9,286047002.6,N
1703168455.7,286047000.3,N
1703168475.5,286046999.8,N
1703168495.4,286047001.2,N
1703168515.2,286046998.5,N
1703168535.1,286047000.9,N
1703168536.0,286047000.9,N
1703168555.8,286046999.7,N
1703168575.6,286047001.0,N
1703168595.5,286047000.1,N
1703168615.3,286047000.6,N
1703168635.2,286046999.8,N
1703168655.9,286047002.4,N
1703168675.7,286047002.0,N
1703168695.6,286047001.5,N
1703168715.4,286047000.9,N
1703168735.2,286046998.1,N
1703168755.1,286047000.8,N
1703168756.0,286047000.8,N
1703168775.8,286046998.9,N
1703168795.7,286046999.6,N
1703168815.5,286046999.6,N
1703168835.3,286046999.0,N
1703168855.2,286046998.1,N
1703168875.0,286047001.2,N
1703168875.9,286047001.2,N
1703168895.7,286046999.9,N
1703168915.6,286046998.3,N
1703168935.4,286047000.8,N
1703168985.3,286046998.1,E
1703168995.2,286047000.9,N
1703169015.0,286047000.1,P
1703169016.0,286047000.1,N
1703169035.8,286047000.2,N
1703169055.6,286046999.8,N
1703169075.5,286047000.0,N
1703169095.3,286046999.7,N
1703169115.1,286046999.7,N
1703169135.9,286047001.0,N
1703169155.7,286046998.6,Y
1703169175.6,286046999.4,P
1703169195.4,286046998.6,P
1703169215.2,286047000.9,N
1703169235.1,286046998.2,N
1703169236.0,286046998.2,N
1703169255.8,286047000.0,N
1703169275.7,286047002.4,N
1703169295.5,286047002.0,N
1703169315.4,286047002.3,N
1703169335.2,286047000.0,N
1703169355.1,286046999.8,N
1703169356.0,286046999.8,N
1703169375.8,286047000.4,N
1703169395.6,286047001.6,N
1703169415.5,286047002.5,N
1703169435.3,286047002.3,N
1703169455.2,286047002.4,N
1703169475.0,286047001.9,N
1703169475.9,286047001.9,N
1703169495.7,286047002.2,N
1703169515.6,286047001.8,N
1703169535.4,286047002.5,N
1703169555.3,286047004.2,N
1703169575.1,286047005.9,Y
1703169595.8,286047002.8,P
1703169615.7,286047000.7,N
1703169635.5,286047000.8,N
1703169655.3,286046998.4,N
1703169675.2,286046999.0,N
1703169695.0,286046999.5,N
1703169695.9,286046999.5,N
1703169715.8,286046999.1,N
1703169735.6,286046996.6,N
1703169755.5,286046998.4,N
1703169775.3,286047001.2,N
1703169795.1,286046998.4,N
1703169815.9,286046997.0,N
1703169835.7,286046995.0,Y
1703169855.6,286046996.9,P
1703169875.4,286046999.0,N
1703169895.2,286046999.3,N
1703169915.1,286046998.5,N
1703169916.0,286046998.5,N
1703169935.8,286046998.7,N
1703169955.6,286047001.2,N
1703169975.5,286046998.8,N
1703169995.3,286046999.0,N
1703170015.2,286046998.1,N
1703170035.9,286047000.9,N
1703170055.7,286047000.3,N
1703170075.6,286047000.3,N
1703170095.4,286047002.4,N
1703170115.2,286047002.6,N
1703170135.1,286046999.7,N
1703170136.0,286046999.7,N
1703170155.8,286047002.5,N
1703170175.7,286047001.7,N
1703170195.5,286047001.9,N
1703170215.3,286047002.3,N
1703170235.2,286047002.2,N
1703170255.0,286047002.2,N
1703170255.9,286047002.2,N
1703170275.8,286047002.5,N
1703170295.6,286047000.2,N
1703170315.4,286047000.0,N
1703170335.3,286047004.4,N
1703170355.1,286047002.6,N
1703170375.8,286047002.6,N
1703170395.7,286047001.6,N
1703170415.5,286047002.4,N
1703170435.4,286047003.9,N
1703170455.2,286047001.3,N
1703170475.0,286047004.4,N
1703170475.9,286047004.4,N
1703170495.8,286047004.4,N
1703170515.6,286047004.4,N
1703170535.4,286047001.6,N
1703170555.3,286047004.0,N
1703170575.1,286047004.3,N
1703170595.9,286047004.4,N
1703170615.7,286047002.5,N
1703170635.5,286047002.7,N
1703170655.4,286047000.0,N
1703170675.2,286047001.0,N
1703170695.1,286047000.3,N
1703170696.0,286047000.3,N
1703170715.8,286046999.8,N
1703170735.6,286047002.6,N
1703170755.5,286047001.7,N
1703170775.3,286047002.5,N
1703170795.1,286047001.8,N
